Location: Cussy
(47.0410°N, 4.6412°E)
Time: 05:34:27
(UTC+00:00)

Cosmos 389 Rocket - Pass Details

Date: 30 November 2020
Orbit: 442 x 473 km, 81.1° (Epoch: 18 January)

Event Time Altitude Azimuth Distance (km) Brightness Sun altitude
Rises 16:34:48 0° 185° (S) 2,429 6.6 -6.9°
Reaches altitude 10° 16:36:51 10° 183° (S) 1,561 5.5 -7.2°
Maximum altitude 16:40:14 72° 99° (E) 471 2.3 -7.7°
Drops below altitude 10° 16:43:39 10° 15° (NNE) 1,573 4.8 -8.3°
Sets 16:45:44 0° 13° (NNE) 2,450 5.8 -8.6°
